Location: Les Jeannots
(43.2262°N, 5.5774°E)
Time: 02:34:16
(UTC+00:00)

Cosmos 371 Rocket - Pass Details

Date: 05 July 2020
Orbit: 684 x 699 km, 74.0° (Epoch: 04 August)

Event Time Altitude Azimuth Distance (km) Brightness Sun altitude
Rises 23:43:10 0° 336° (NNW) 3,081 7.7 -24.1°
Reaches altitude 10° 23:45:31 10° 333° (NNW) 2,158 6.7 -24.1°
Maximum altitude 23:50:18 62° 254° (WSW) 779 3.3 -24.1°
Enters shadow 23:50:24 62° 247° (WSW) 780 3.3 -24.1°
